Total_Precipitation_Accumulation
1.72 1.68 1.61 1.49 1.35 1.22 1.12 1.08 0.97 0.87 0.78 0.71 0.63 0.61 0.57 0.52 0.48 0.45 0.46 0.50 0.66 0.96 1.28 1.42 1.53 1.53 1.49 1.46 1.35 1.28 1.18 1.05 0.96 0.91 0.92 0.94 0.94 0.91 0.87 0.84 0.83 0.83 0.83
1.96 1.84 1.74 1.66 1.50 1.37 1.27 1.18 1.07 1.05 0.96 0.85 0.74 0.64 0.63 0.60 0.58 0.54 0.47 0.48 0.54 0.69 1.07 1.42 1.62 1.68 1.67 1.72 1.69 1.53 1.39 1.28 1.21 1.14 1.08 1.05 1.03 1.02 1.03 0.98 0.92 0.93 0.95
2.25 2.16 1.98 1.78 1.56 1.45 1.42 1.41 1.38 1.33 1.23 1.02 0.87 0.76 0.69 0.66 0.63 0.57 0.52 0.51 0.50 0.55 0.81 1.22 1.44 1.59 1.65 1.78 1.99 1.82 1.63 1.51 1.46 1.36 1.28 1.21 1.16 1.14 1.16 1.17 1.14 1.14 1.15
2.44 2.34 2.16 1.95 1.78 1.68 1.61 1.57 1.56 1.51 1.39 1.19 0.99 0.90 0.82 0.74 0.67 0.64 0.59 0.56 0.55 0.52 0.62 0.92 1.11 1.25 1.48 1.74 2.08 2.20 1.90 1.71 1.60 1.51 1.39 1.33 1.27 1.23 1.24 1.28 1.31 1.32 1.35
2.56 2.44 2.26 2.08 1.98 1.90 1.78 1.66 1.64 1.59 1.53 1.39 1.21 1.08 1.01 0.94 0.86 0.80 0.74 0.69 0.66 0.65 0.64 0.76 0.85 0.94 1.16 1.42 1.74 2.20 2.24 1.98 1.79 1.68 1.61 1.50 1.44 1.44 1.40 1.40 1.44 1.51 1.57
2.55 2.49 2.38 2.25 2.13 2.09 2.00 1.86 1.73 1.66 1.60 1.61 1.53 1.37 1.25 1.17 1.07 0.96 0.87 0.80 0.79 0.80 0.80 0.80 0.75 0.75 0.90 1.12 1.35 1.73 2.14 2.09 1.95 1.84 1.76 1.71 1.60 1.59 1.64 1.66 1.70 1.77 1.89
2.62 2.52 2.39 2.38 2.28 2.15 2.07 2.03 2.02 2.00 1.89 1.86 1.92 1.80 1.56 1.43 1.33 1.16 1.02 0.92 0.88 0.90 0.92 0.92 0.86 0.77 0.81 0.96 1.14 1.39 1.75 2.06 2.11 2.08 1.92 1.81 1.78 1.79 1.86 1.95 2.01 2.10 2.18
2.74 2.64 2.52 2.38 2.34 2.26 2.15 2.10 2.10 2.22 2.29 2.26 2.24 2.22 2.08 1.90 1.56 1.29 1.18 1.06 0.98 1.02 1.07 1.06 1.00 0.94 0.90 0.92 1.02 1.21 1.45 1.81 2.02 2.20 2.14 2.03 2.01 2.06 2.22 2.41 2.50 2.52 2.56
3.04 2.81 2.73 2.60 2.43 2.33 2.25 2.15 2.01 2.00 2.17 2.35 2.36 2.46 2.29 1.98 1.70 1.50 1.28 1.16 1.09 1.06 1.05 1.08 1.08 1.04 1.00 0.95 0.92 1.04 1.22 1.50 1.87 2.14 2.36 2.37 2.34 2.38 2.54 2.78 3.03 3.12 3.09
3.46 3.25 3.01 2.84 2.69 2.50 2.33 2.28 2.25 2.11 2.09 2.22 2.29 2.23 2.12 1.86 1.82 1.76 1.48 1.30 1.21 1.16 1.10 1.07 1.06 1.07 1.12 1.12 1.10 1.13 1.20 1.40 1.83 2.18 2.46 2.65 2.76 2.91 3.09 3.22 3.38 3.51 3.46
3.54 3.42 3.29 3.08 2.88 2.75 2.59 2.47 2.39 2.37 2.30 2.25 2.24 2.16 2.13 1.91 1.72 1.73 1.59 1.40 1.35 1.27 1.20 1.13 1.07 1.09 1.14 1.21 1.19 1.26 1.33 1.40 1.74 2.23 2.63 2.94 3.25 3.52 3.74 3.82 3.84 3.77 3.66
3.70 3.48 3.31 3.21 3.05 2.94 2.82 2.71 2.63 2.56 2.47 2.35 2.30 2.26 2.25 2.21 1.96 1.86 1.70 1.45 1.40 1.33 1.29 1.26 1.20 1.17 1.20 1.29 1.34 1.47 1.41 1.41 1.60 2.06 2.68 3.07 3.22 3.37 3.59 3.76 3.89 3.96 3.94
3.50 3.50 3.33 3.24 3.15 2.95 2.84 2.81 2.74 2.60 2.57 2.47 2.40 2.37 2.31 2.16 2.07 2.10 2.09 1.88 1.67 1.44 1.39 1.37 1.30 1.25 1.25 1.31 1.42 1.60 1.52 1.56 1.63 1.78 2.24 2.84 2.96 2.86 2.89 3.13 3.44 3.70 3.77
3.20 3.28 3.33 3.20 3.12 3.01 2.83 2.72 2.68 2.57 2.50 2.49 2.38 2.33 2.33 2.25 2.19 2.25 2.30 2.36 2.25 1.88 1.61 1.41 1.33 1.40 1.46 1.45 1.52 1.61 1.42 1.56 1.59 1.67 1.82 2.15 2.35 2.26 2.21 2.38 2.71 3.00 3.16
3.12 3.13 3.18 3.09 3.02 2.93 2.80 2.68 2.57 2.46 2.39 2.35 2.29 2.24 2.22 2.18 2.21 2.23 2.26 2.39 2.63 2.46 1.93 1.48 1.35 1.37 1.48 1.54 1.65 1.50 1.33 1.52 1.59 1.63 1.68 1.71 1.85 1.99 1.97 1.99 2.14 2.29 2.41
2.75 2.87 2.98 2.95 2.92 2.85 2.76 2.62 2.46 2.38 2.34 2.22 2.18 2.19 2.11 2.04 2.12 2.25 2.32 2.30 2.41 2.51 2.18 1.56 1.33 1.27 1.38 1.44 1.57 1.43 1.32 1.55 1.53 1.50 1.51 1.55 1.64 1.82 1.95 1.95 1.92 1.97 2.01
2.40 2.48 2.51 2.58 2.63 2.65 2.63 2.54 2.37 2.28 2.27 2.16 2.09 2.12 2.07 1.98 2.02 2.08 2.20 2.22 2.21 2.28 2.20 1.64 1.38 1.34 1.40 1.42 1.47 1.39 1.31 1.34 1.35 1.51 1.49 1.48 1.51 1.63 1.81 1.93 1.91 1.87 1.87
2.31 2.29 2.28 2.32 2.34 2.32 2.37 2.35 2.21 2.11 2.09 2.03 1.96 1.97 1.97 1.93 1.96 1.94 1.99 2.03 1.97 1.93 1.98 1.75 1.40 1.37 1.38 1.36 1.44 1.49 1.40 1.31 1.24 1.42 1.44 1.43 1.45 1.49 1.60 1.74 1.87 1.89 1.85
2.27 2.22 2.18 2.16 2.16 2.17 2.19 2.17 2.14 2.02 1.95 1.88 1.82 1.82 1.83 1.88 1.86 1.80 1.77 1.78 1.74 1.74 1.82 1.85 1.60 1.42 1.41 1.41 1.49 1.55 1.49 1.45 1.37 1.44 1.52 1.51 1.53 1.54 1.60 1.66 1.78 1.89 1.90
2.23 2.14 2.05 2.01 1.99 2.03 2.11 2.13 2.19 2.14 2.00 1.90 1.83 1.79 1.71 1.72 1.67 1.64 1.68 1.71 1.79 1.89 1.92 1.99 1.86 1.64 1.55 1.53 1.63 1.68 1.65 1.54 1.52 1.47 1.62 1.69 1.72 1.73 1.73 1.74 1.74 1.81 1.87
2.10 2.11 2.04 2.00 1.96 1.97 2.04 2.12 2.17 2.16 2.07 2.00 1.88 1.78 1.69 1.71 1.69 1.66 1.71 1.76 1.90 2.09 2.19 2.25 2.13 1.92 1.77 1.70 1.68 1.63 1.73 1.72 1.71 1.61 1.61 1.63 1.67 1.71 1.77 1.86 1.89 1.88 1.96
1.90 2.01 2.05 2.03 2.01 1.99 2.24 2.26 2.17 2.13 2.11 2.03 1.93 1.77 1.68 1.70 1.67 1.72 1.77 1.85 2.06 2.28 2.40 2.41 2.27 2.03 1.71 1.56 1.59 1.78 2.00 2.25 2.19 1.68 1.62 1.67 1.64 1.78 1.75 1.78 2.01 2.04 2.03
1.80 1.92 2.00 2.06 2.08 2.14 2.25 2.11 2.17 2.06 2.01 1.97 1.89 1.80 1.71 1.61 1.62 1.48 1.62 1.78 1.87 2.04 2.12 2.10 2.03 1.66 1.50 1.47 1.79 2.16 2.21 2.26 2.02 1.68 1.87 2.05 1.84 1.83 1.71 1.80 2.10 1.98 1.95
1.72 1.83 1.91 1.91 1.92 2.03 2.12 1.98 1.99 1.91 1.93 1.91 1.81 1.74 1.72 1.68 1.64 1.69 1.75 1.83 1.66 1.56 1.57 1.52 1.54 1.46 1.48 1.65 2.05 2.48 2.62 2.64 2.35 2.08 2.10 2.29 1.91 1.75 1.66 1.72 2.01 1.92 1.84
1.68 1.68 1.73 1.76 1.75 1.84 1.93 1.88 1.86 1.74 1.80 1.76 1.69 1.64 1.63 1.58 1.79 2.01 2.03 2.02 1.76 1.49 1.50 1.62 1.74 1.77 1.86 2.01 2.18 2.65 3.02 3.19 2.80 2.16 1.93 2.07 1.92 1.80 1.80 1.75 1.83 1.97 1.86
1.66 1.62 1.58 1.57 1.57 1.61 1.73 1.71 1.72 1.64 1.69 1.64 1.60 1.60 1.72 1.68 1.87 2.01 1.93 2.02 1.93 1.60 1.51 1.58 1.67 1.73 1.69 1.81 2.12 2.28 2.84 3.46 3.15 2.51 1.80 1.91 1.98 2.13 2.48 1.96 1.68 1.75 1.82